VK6WB Weather Reports


time (UTC)temp
C
wind
direction
speed
KPH
gust
KPH
rain 1hr
cm
rain 24hr
cm
rain mn
cm
humidity
%
barometer
mb
20260509000004 15 227 11.3 24.1 0.00 0.00 0.00 52 1023.8
20260508235004 14 236 6.4 20.9 0.00 0.00 0.00 53 1023.7
20260508234004 13 216 9.7 19.3 0.00 0.00 0.00 55 1023.9
20260508233004 13 221 6.4 19.3 0.00 0.00 0.00 56 1023.6
20260508232004 12 237 6.4 17.7 0.00 0.00 0.00 59 1023.5
20260508231004 12 219 6.4 11.3 0.00 0.00 0.00 59 1023.5
20260508230004 12 215 3.2 17.7 0.00 0.00 0.00 58 1023.6
20260508225004 13 222 9.7 16.1 0.00 0.00 0.00 58 1023.4
20260508224004 12 223 9.7 17.7 0.00 0.00 0.00 59 1023.4
20260508223004 13 201 3.2 14.5 0.00 0.00 0.00 57 1023.4
20260508222004 13 225 4.8 17.7 0.00 0.00 0.00 56 1023.4
20260508221004 13 222 12.9 19.3 0.00 0.00 0.00 55 1023.2
20260508220004 13 210 6.4 17.7 0.00 0.00 0.00 54 1023.2
20260508215004 13 214 9.7 17.7 0.00 0.00 0.00 54 1023.2
20260508214004 14 218 4.8 17.7 0.00 0.00 0.00 52 1023.2
20260508213003 14 237 6.4 22.5 0.00 0.00 0.00 51 1023.1
20260508212004 15 222 11.3 24.1 0.00 0.00 0.00 50 1022.8
20260508211004 15 227 9.7 27.4 0.00 0.00 0.00 50 1022.7
20260508210004 15 227 8.0 24.1 0.00 0.00 0.00 50 1022.6
20260508205004 15 232 6.4 20.9 0.00 0.00 0.00 50 1022.5
20260508204004 15 239 14.5 27.4 0.00 0.00 0.00 49 1022.4
20260508203003 15 260 8.0 20.9 0.00 0.00 0.00 50 1022.4
20260508202004 15 236 6.4 25.7 0.00 0.00 0.00 49 1022.4
20260508201004 15 229 11.3 24.1 0.00 0.00 0.00 49 1022.2
20260508200004 15 249 4.8 25.7 0.00 0.00 0.00 48 1022.2
20260508195004 15 228 6.4 20.9 0.00 0.00 0.00 48 1022.2
20260508194004 15 241 6.4 17.7 0.00 0.00 0.00 47 1022.1
20260508193003 15 223 9.7 24.1 0.00 0.00 0.00 46 1022.1
20260508192004 16 234 11.3 27.4 0.00 0.00 0.00 46 1022.1
20260508191003 16 218 17.7 27.4 0.00 0.00 0.00 46 1022.1
20260508190003 15 249 9.7 20.9 0.00 0.00 0.00 46 1022.0
20260508185004 15 231 12.9 24.1 0.00 0.00 0.00 46 1022.1
20260508184003 16 246 12.9 24.1 0.00 0.00 0.00 46 1022.2
20260508183003 16 243 9.7 29.0 0.00 0.00 0.00 45 1022.0
20260508182005 16 244 6.4 24.1 0.00 0.00 0.00 46 1022.1
20260508181005 16 237 8.0 24.1 0.00 0.00 0.00 46 1022.3
20260508180005 16 243 8.0 24.1 0.00 0.00 0.00 46 1022.2
20260508175005 16 255 9.7 24.1 0.00 0.00 0.00 45 1022.2
20260508174005 16 245 9.7 19.3 0.00 0.00 0.00 45 1022.1
20260508173005 16 243 6.4 19.3 0.00 0.00 0.00 44 1022.0
20260508172005 16 232 9.7 20.9 0.00 0.00 0.00 44 1022.0
20260508171005 16 261 6.4 19.3 0.00 0.00 0.00 44 1022.3
20260508170005 16 259 6.4 17.7 0.00 0.00 0.00 44 1022.0
20260508165005 16 253 4.8 20.9 0.00 0.00 0.00 43 1022.1
20260508164005 16 241 4.8 17.7 0.00 0.00 0.00 42 1022.1
20260508163005 17 267 6.4 19.3 0.00 0.00 0.00 41 1022.2
20260508162005 17 274 6.4 22.5 0.00 0.00 0.00 40 1022.0
20260508161005 17 248 12.9 19.3 0.00 0.00 0.00 39 1021.9
20260508160006 17 248 8.0 24.1 0.00 0.00 0.00 38 1021.9
20260508155005 17 246 12.9 27.4 0.00 0.00 0.00 37 1022.1
20260508154005 17 251 8.0 24.1 0.00 0.00 0.00 36 1022.0
20260508153005 17 254 9.7 25.7 0.00 0.00 0.00 36 1021.9
20260508152005 17 246 11.3 19.3 0.00 0.00 0.00 36 1022.1
20260508151005 17 241 12.9 20.9 0.00 0.00 0.00 35 1022.0
20260508150006 17 238 11.3 22.5 0.00 0.00 0.00 35 1022.2
20260508145005 17 267 6.4 22.5 0.00 0.00 0.00 35 1022.3
20260508144004 17 255 8.0 16.1 0.00 0.00 0.00 36 1022.3
20260508143005 17 263 9.7 16.1 0.00 0.00 0.00 36 1022.3
20260508142005 17 241 4.8 17.7 0.00 0.00 0.00 36 1022.4
20260508141005 17 242 4.8 19.3 0.00 0.00 0.00 36 1022.4
20260508140005 17 243 6.4 12.9 0.00 0.00 0.00 37 1022.4
20260508135005 18 254 4.8 17.7 0.00 0.00 0.00 37 1022.3
20260508134005 18 269 9.7 25.7 0.00 0.00 0.00 37 1022.2
20260508133005 18 258 8.0 24.1 0.00 0.00 0.00 38 1022.2
20260508132005 18 258 6.4 25.7 0.00 0.00 0.00 39 1022.3
20260508131005 18 261 9.7 17.7 0.00 0.00 0.00 41 1022.3
20260508130005 18 244 9.7 17.7 0.00 0.00 0.00 42 1022.3
20260508125005 18 271 8.0 19.3 0.00 0.00 0.00 42 1022.2
20260508124005 18 272 8.0 17.7 0.00 0.00 0.00 43 1022.0
20260508123004 18 264 6.4 24.1 0.00 0.00 0.00 42 1022.1
20260508122005 18 270 9.7 17.7 0.00 0.00 0.00 43 1022.1
20260508121005 18 258 8.0 17.7 0.00 0.00 0.00 42 1022.1
20260508120005 18 260 6.4 17.7 0.00 0.00 0.00 42 1022.0
20260508115005 18 295 8.0 17.7 0.00 0.00 0.00 42 1021.9
20260508114004 18 274 8.0 24.1 0.00 0.00 0.00 41 1021.7
20260508113005 18 267 6.4 14.5 0.00 0.00 0.00 42 1021.8
20260508112004 18 279 6.4 12.9 0.00 0.00 0.00 42 1021.9
20260508111005 18 278 3.2 16.1 0.00 0.00 0.00 42 1021.8
20260508110005 18 280 6.4 11.3 0.00 0.00 0.00 42 1021.9
20260508105005 19 280 3.2 11.3 0.00 0.00 0.00 41 1021.9
20260508104004 19 276 3.2 11.3 0.00 0.00 0.00 40 1022.0
20260508103005 20 267 6.4 16.1 0.00 0.00 0.00 39 1021.8
20260508102005 20 281 6.4 14.5 0.00 0.00 0.00 38 1021.8
20260508101004 20 274 6.4 16.1 0.00 0.00 0.00 38 1021.8
20260508100005 20 276 4.8 17.7 0.00 0.00 0.00 38 1021.7
20260508095004 20 270 6.4 17.7 0.00 0.00 0.00 38 1021.8
20260508094005 21 262 6.4 19.3 0.00 0.00 0.00 37 1021.8
20260508093004 21 269 8.0 20.9 0.00 0.00 0.00 36 1021.7
20260508092004 21 262 11.3 17.7 0.00 0.00 0.00 36 1021.7
20260508091005 21 271 8.0 20.9 0.00 0.00 0.00 36 1021.5
20260508090005 22 281 11.3 24.1 0.00 0.00 0.00 34 1021.4
20260508085004 22 282 12.9 25.7 0.00 0.00 0.00 32 1021.3
20260508084005 23 258 12.9 24.1 0.00 0.00 0.00 30 1021.3
20260508083004 23 269 12.9 24.1 0.00 0.00 0.00 30 1021.2
20260508082005 23 263 9.7 19.3 0.00 0.00 0.00 30 1021.3
20260508081004 23 257 9.7 22.5 0.00 0.00 0.00 29 1021.4
20260508080004 23 267 12.9 25.7 0.00 0.00 0.00 28 1021.4
20260508075005 23 281 9.7 24.1 0.00 0.00 0.00 28 1021.4
20260508074004 23 271 14.5 27.4 0.00 0.00 0.00 27 1021.4
20260508073005 23 242 14.5 27.4 0.00 0.00 0.00 29 1021.3
20260508072005 23 276 6.4 25.7 0.00 0.00 0.00 29 1021.3
20260508071005 23 301 8.0 25.7 0.00 0.00 0.00 28 1021.1
20260508070005 23 284 12.9 27.4 0.00 0.00 0.00 29 1021.2
20260508065004 23 248 9.7 25.7 0.00 0.00 0.00 30 1021.4
20260508064004 23 239 12.9 27.4 0.00 0.00 0.00 29 1021.4
20260508063005 23 259 17.7 27.4 0.00 0.00 0.00 29 1021.5
20260508062005 23 253 12.9 24.1 0.00 0.00 0.00 30 1021.5
20260508061004 23 277 12.9 24.1 0.00 0.00 0.00 31 1021.6
20260508060005 23 251 12.9 25.7 0.00 0.00 0.00 30 1021.9
20260508055004 23 220 12.9 25.7 0.00 0.00 0.00 29 1021.9
20260508054005 23 246 12.9 32.2 0.00 0.00 0.00 31 1022.1
20260508053004 23 237 9.7 24.1 0.00 0.00 0.00 32 1022.2
20260508052004 23 222 11.3 29.0 0.00 0.00 0.00 31 1022.3
20260508051004 23 250 6.4 24.1 0.00 0.00 0.00 33 1022.3
20260508050004 22 263 8.0 27.4 0.00 0.00 0.00 33 1022.4
20260508045005 22 247 12.9 24.1 0.00 0.00 0.00 35 1022.6
20260508044004 22 238 8.0 22.5 0.00 0.00 0.00 40 1022.8
20260508043004 21 248 12.9 24.1 0.00 0.00 0.00 40 1023.0
20260508042004 21 242 14.5 24.1 0.00 0.00 0.00 41 1023.2
20260508041004 21 248 12.9 27.4 0.00 0.00 0.00 42 1023.5
20260508040005 21 263 14.5 27.4 0.00 0.00 0.00 41 1023.7
20260508035004 21 237 12.9 25.7 0.00 0.00 0.00 42 1023.9
20260508034004 21 245 17.7 33.8 0.00 0.00 0.00 42 1024.2
20260508033004 20 254 11.3 27.4 0.00 0.00 0.00 43 1024.3
20260508032004 20 272 11.3 24.1 0.00 0.00 0.00 43 1024.5
20260508031004 20 231 11.3 33.8 0.00 0.00 0.00 42 1024.6
20260508030004 20 255 14.5 33.8 0.00 0.00 0.00 43 1024.8
20260508025004 20 213 11.3 29.0 0.00 0.00 0.00 44 1024.9
20260508024004 20 238 17.7 32.2 0.00 0.00 0.00 44 1025.1
20260508023004 19 217 8.0 37.0 0.00 0.00 0.00 45 1025.1
20260508022004 20 233 9.7 29.0 0.00 0.00 0.00 44 1024.9
20260508021004 19 229 17.7 41.8 0.00 0.00 0.00 44 1025.1
20260508020004 18 233 12.9 35.4 0.00 0.00 0.00 45 1025.2
20260508015004 18 215 24.1 33.8 0.00 0.00 0.00 43 1025.4
20260508014004 18 221 11.3 25.7 0.00 0.00 0.00 44 1025.4
20260508013004 18 222 12.9 24.1 0.00 0.00 0.00 44 1025.5
20260508012004 18 237 12.9 25.7 0.00 0.00 0.00 44 1025.7
20260508011004 18 214 11.3 25.7 0.00 0.00 0.00 45 1025.7
20260508010004 18 238 14.5 24.1 0.00 0.00 0.00 45 1025.9
20260508005003 18 235 11.3 20.9 0.00 0.00 0.00 46 1025.9
20260508004004 17 247 6.4 17.7 0.00 0.00 0.00 47 1026.0
20260508003005 17 230 6.4 17.7 0.00 0.00 0.00 47 1025.9
20260508002004 17 233 12.9 17.7 0.00 0.00 0.00 47 1026.0
20260508001003 16 249 3.2 14.5 0.00 0.00 0.00 49 1025.9